Temperature
22 22 21 21 21 21 21 21 21 20 20 20 19 19 19 19 19 19 19 19 18 18 18 18 18 18 18 18 18 18 18 18 18 18 18 18 18 18 18 18 18 18 18
22 22 21 21 21 21 21 21 21 20 20 20 20 19 19 19 19 19 18 18 18 18 18 18 18 18 18 18 18 18 18 17 17 17 17 18 18 18 18 18 18 18 18
22 22 22 21 21 21 21 21 21 21 20 20 20 19 19 19 19 19 18 18 18 18 18 18 18 18 18 18 18 18 17 17 17 17 17 17 17 17 18 18 18 18 18
22 22 22 22 22 22 21 21 21 21 20 20 20 19 19 19 19 19 18 18 18 18 18 18 18 18 18 18 18 18 17 17 17 17 17 17 17 17 17 17 17 17 17
22 22 23 22 22 22 21 21 21 20 20 20 20 19 19 19 19 19 18 18 18 18 18 18 18 18 18 18 17 17 17 17 17 17 17 17 17 17 17 17 17 17 17
22 22 22 22 22 21 21 21 21 20 20 20 20 19 19 19 19 18 18 18 18 18 18 18 18 18 18 18 17 17 17 17 17 17 17 17 17 17 16 16 17 17 17
22 22 22 22 22 22 21 21 21 20 20 20 20 19 19 19 19 18 18 18 18 18 18 18 18 18 18 17 17 17 17 17 17 17 16 16 16 16 16 16 16 16 16
22 22 23 22 22 22 22 21 21 21 20 20 20 19 19 19 19 18 18 18 18 18 18 18 17 17 17 17 17 17 17 17 17 16 16 16 16 16 16 16 16 16 16
22 23 22 22 22 22 21 21 21 21 20 20 20 19 19 19 19 18 18 18 18 18 18 17 17 17 17 17 17 17 17 16 16 16 16 16 16 16 16 15 15 15 15
22 22 22 22 22 22 21 21 21 20 20 20 20 19 19 19 18 18 18 18 18 17 17 17 17 17 17 17 17 16 16 16 16 16 16 16 16 16 15 15 15 15 15
22 22 22 22 21 21 21 21 20 20 20 20 19 19 19 18 18 18 18 18 17 17 17 17 17 17 17 17 16 16 16 16 16 16 16 15 15 15 15 15 15 15 15
22 22 21 21 21 21 20 20 20 20 20 19 19 18 18 18 18 18 18 17 17 17 17 17 17 17 17 16 16 16 16 16 16 15 15 15 15 15 15 15 15 15 14
21 21 21 20 20 20 20 20 20 20 19 19 18 18 18 18 18 18 17 17 17 17 17 16 16 16 16 16 16 16 15 15 15 15 15 15 15 14 14 14 14 14 14
20 20 20 20 20 20 20 19 19 19 19 19 18 18 18 18 18 18 17 17 17 17 16 16 16 16 16 16 16 15 15 15 15 15 15 15 14 14 14 14 14 14 14
19 19 20 19 19 19 19 19 19 19 19 18 18 18 18 17 17 17 17 17 17 16 16 16 16 16 15 15 15 15 15 15 15 15 15 14 14 14 14 14 14 13 13
19 19 19 19 19 19 19 19 19 19 18 18 18 17 17 17 17 17 17 17 16 16 16 16 16 15 15 15 15 15 15 15 14 14 14 14 14 14 14 14 14 13 13
19 19 19 19 19 19 19 19 18 18 18 18 17 17 17 17 17 16 16 16 16 16 16 16 15 15 15 15 15 15 14 14 14 14 14 14 14 14 13 13 13 13 13
19 19 19 19 19 19 18 18 18 18 18 18 17 17 17 16 16 16 16 16 16 16 15 15 15 15 15 15 15 14 14 14 14 14 14 14 13 13 13 13 13 13 13
19 19 19 19 18 18 18 18 18 18 17 17 17 17 16 16 16 16 15 15 15 15 15 15 15 15 15 15 14 14 14 14 14 13 13 13 13 13 13 13 13 13 13
19 18 18 18 18 18 17 17 17 17 17 17 16 16 16 16 15 15 15 15 15 15 14 14 14 14 14 14 14 13 13 13 13 13 13 13 13 13 12 12 12 12 13
18 18 18 18 18 17 17 17 17 17 16 16 16 16 16 15 15 15 15 14 14 14 14 14 14 14 14 14 13 13 13 13 13 13 13 13 13 12 12 12 12 12 12
18 18 17 17 17 17 17 17 16 16 16 16 16 15 15 15 15 14 14 14 14 14 14 14 13 13 13 13 13 13 13 13 12 12 12 12 12 12 12 12 12 12 12
17 17 17 17 17 16 16 16 16 16 16 15 15 15 15 14 14 14 14 13 13 13 13 13 13 13 13 13 13 13 13 13 12 12 12 12 12 12 12 12 12 12 11
17 17 16 16 16 16 16 15 15 15 15 15 14 14 14 14 14 13 13 13 13 13 13 13 13 13 13 13 12 12 12 12 12 12 12 12 12 12 12 12 11 11 11
16 16 16 16 16 15 15 15 15 14 14 14 14 13 13 13 13 13 13 13 13 13 13 13 12 12 12 13 12 12 12 12 12 12 12 12 12 11 11 11 11 11 11
16 15 15 15 15 15 14 14 14 14 14 13 13 13 13 13 13 13 12 12 12 12 12 12 12 12 12 12 12 12 12 12 12 11 11 11 11 11 11 11 11 11 11
Wind_Speed
8 7 7 8 7 6 6 5 5 4 4 3 2 2 1 1 1 1 2 2 1 1 1 0 1 1 0 1 1 0 0 0 0 1 1 2 1 1 1 1 1 1 2
6 7 8 8 8 8 7 6 5 5 4 3 3 2 2 1 1 1 1 1 1 1 1 1 1 0 0 1 1 1 0 0 1 1 1 1 2 2 1 1 1 1 1
10 10 9 9 9 9 8 7 6 5 4 4 3 2 2 1 1 1 1 2 1 1 1 1 1 1 1 1 1 1 1 1 0 1 2 1 1 2 2 1 1 1 2
9 9 9 9 10 9 8 7 6 5 4 4 4 4 3 2 2 1 1 2 1 1 1 2 1 1 1 1 1 1 1 2 1 0 0 1 2 1 2 2 2 2 2
10 10 11 10 8 8 8 7 6 6 5 5 5 4 3 2 1 0 1 1 1 1 1 1 1 1 1 1 1 1 2 2 2 2 1 1 1 1 2 3 3 3 3
9 9 9 7 7 7 7 7 7 6 6 6 5 6 5 4 2 1 1 2 2 1 1 1 1 1 1 2 2 2 2 2 2 2 2 2 1 2 2 3 3 3 3
8 8 9 9 9 9 9 8 8 7 6 7 6 6 6 5 4 3 3 2 1 1 2 1 1 1 2 2 2 2 2 2 2 2 2 2 3 2 2 2 2 3 2
7 9 10 9 9 10 9 9 9 7 7 7 6 5 5 4 4 4 3 3 2 2 2 1 1 1 1 1 1 1 1 1 2 2 2 2 2 2 2 2 2 2 2
7 8 8 7 8 8 8 9 8 7 7 7 6 5 5 4 4 3 3 2 2 2 1 1 2 1 1 1 1 1 1 1 2 2 2 2 2 2 2 2 3 2 3
5 5 6 7 7 7 7 7 7 7 6 7 6 5 5 4 3 3 3 3 3 2 2 2 1 1 1 1 1 1 1 1 2 2 2 2 2 2 2 2 2 3 3
5 5 5 5 5 5 5 6 6 5 5 5 5 5 4 4 3 3 3 3 3 3 2 2 2 2 2 1 1 1 1 1 2 2 2 2 2 2 2 2 2 2 3
3 3 3 4 4 4 4 5 6 5 5 4 4 4 3 3 3 3 3 2 3 3 3 3 3 3 2 2 2 2 2 2 2 2 2 2 2 2 2 2 2 2 3
3 3 3 3 3 3 3 4 5 5 5 4 4 3 4 4 4 3 3 2 3 3 3 3 3 3 3 3 3 3 3 3 3 2 2 2 2 2 2 2 2 3 3
3 3 2 2 2 2 2 2 3 4 5 5 5 4 4 4 4 3 3 3 3 3 3 4 4 3 3 3 3 3 3 3 3 3 2 2 2 3 3 3 3 3 3
2 2 2 2 1 2 2 3 3 3 4 5 5 5 4 3 3 4 4 3 3 4 4 3 3 3 3 3 3 3 4 3 3 3 3 3 3 4 4 3 3 3 3
2 2 2 2 2 3 3 3 3 3 3 4 4 4 3 3 4 4 4 3 3 3 3 3 3 3 3 4 4 3 3 3 3 3 3 4 4 5 5 5 5 5 5
2 3 3 3 3 4 4 4 3 3 3 3 3 3 4 4 5 5 4 4 4 3 3 3 3 4 5 4 4 4 3 3 3 3 3 3 3 3 3 4 5 5 7
2 2 3 3 4 3 2 2 2 3 3 3 3 3 3 4 4 4 4 4 3 3 4 4 4 4 5 4 4 3 2 2 3 3 4 4 4 4 3 4 4 4 5
3 3 3 3 2 2 2 2 2 2 2 2 3 3 3 3 3 4 4 3 3 3 4 4 4 4 5 4 3 3 2 2 3 4 4 4 4 5 4 3 4 5 5
1 2 1 0 1 1 2 3 2 2 3 3 3 3 3 3 4 4 4 3 3 4 4 3 3 4 4 4 3 3 2 2 3 3 4 5 5 5 4 4 4 6 6
1 2 2 1 2 2 3 3 2 4 3 2 2 3 3 3 4 3 3 2 2 3 3 3 3 3 4 3 3 3 3 3 4 4 4 5 6 7 6 5 5 7 6
1 1 1 0 1 1 3 3 3 3 2 2 2 3 3 3 2 1 2 2 2 3 3 3 3 3 3 3 4 4 5 4 4 5 5 5 7 7 7 5 6 6 5
1 0 1 0 0 1 2 3 3 2 2 2 3 3 3 2 2 2 3 2 2 3 3 3 3 4 3 3 5 5 5 5 4 5 6 6 6 5 5 6 6 4 3
1 1 1 0 1 1 1 2 2 2 2 2 3 2 2 2 2 2 2 3 3 4 4 4 4 4 3 3 3 3 3 4 4 4 4 4 4 3 3 3 3 2 3
1 2 1 1 1 1 1 1 1 1 1 2 2 2 2 2 2 2 2 3 4 5 5 5 5 4 5 6 6 4 4 4 4 2 1 1 1 2 2 2 2 2 2
1 1 1 1 1 1 2 2 2 1 2 2 2 2 1 2 2 2 2 3 4 4 5 6 6 5 6 7 6 6 5 4 3 2 2 2 2 3 3 3 3 3 3
Wind_Direction
203 184 179 173 169 170 171 174 170 168 155 153 158 157 196 221 234 234 235 237 244 245 168 283 351 4 350 301 294 252 144 27 120 99 357 343 337 312 261 246 246 276 261
193 188 186 180 181 183 183 181 183 175 172 171 163 153 155 198 220 282 297 269 266 267 235 220 249 271 324 332 319 282 198 154 104 123 99 352 342 337 313 303 285 305 289
200 194 191 190 187 190 189 188 185 179 173 158 129 109 81 51 32 331 301 295 279 263 244 225 221 220 200 254 290 188 174 182 129 131 150 155 254 300 309 294 296 303 292
201 195 193 192 195 194 185 181 180 178 171 158 154 158 169 193 224 228 259 295 290 280 263 248 238 232 230 238 246 181 173 170 208 216 218 202 189 213 302 307 286 283 278
196 195 197 196 192 184 182 182 176 177 170 166 169 169 184 203 213 188 292 302 312 311 280 264 259 236 232 231 238 222 180 184 201 205 207 215 235 214 223 281 301 301 274
197 196 194 183 184 180 178 177 177 187 180 174 175 181 187 191 189 212 260 287 298 302 308 304 296 253 237 227 211 217 193 196 197 207 209 204 208 214 216 249 278 287 282
193 192 189 188 189 187 186 182 181 192 187 182 187 191 194 192 199 210 221 243 271 288 295 312 302 290 268 242 217 203 206 198 192 212 226 223 227 218 211 230 265 278 287
193 193 195 194 194 192 188 185 188 195 190 189 195 195 196 197 207 211 214 223 237 254 268 260 265 277 280 275 258 237 242 203 203 219 219 226 238 229 219 215 231 277 292
198 199 194 190 189 189 189 190 190 195 194 195 192 193 195 198 209 216 215 223 237 241 244 250 254 266 262 272 286 270 260 235 237 235 231 236 248 239 232 222 214 221 272
190 188 187 187 186 185 182 178 181 193 196 192 193 195 197 202 202 203 218 228 239 238 235 252 250 259 260 250 238 262 257 236 255 249 241 248 250 244 238 224 211 205 222
189 186 185 181 174 169 173 177 175 177 186 192 189 187 192 194 193 206 224 229 238 232 227 232 235 241 248 248 237 251 245 244 269 271 251 261 254 247 241 225 215 213 208
167 162 157 148 154 168 177 182 175 182 190 176 171 189 192 191 196 215 230 223 230 236 231 229 230 237 241 232 228 238 239 234 253 266 255 261 253 257 251 236 231 229 217
107 115 127 147 165 176 183 185 182 185 178 160 159 185 198 202 212 219 226 226 231 241 241 228 229 236 242 240 237 231 234 236 241 240 236 245 230 261 259 247 243 241 235
117 123 131 138 155 164 185 194 191 185 177 169 173 192 212 208 218 223 222 224 227 236 236 230 229 233 239 242 243 238 240 243 246 236 231 236 232 241 248 246 243 244 247
119 151 151 142 161 181 185 203 201 192 186 180 185 205 218 211 220 228 227 227 232 237 228 230 237 239 237 242 241 238 240 240 247 250 249 251 254 256 248 246 239 233 240
183 177 153 134 185 215 207 202 200 188 177 184 196 204 211 217 228 233 231 227 235 239 234 238 243 250 254 255 243 233 232 236 242 259 265 267 267 275 267 252 238 229 230
210 194 173 171 202 219 208 199 198 174 169 186 199 197 201 218 230 235 235 235 240 236 238 245 245 250 259 259 252 238 219 229 245 253 264 275 281 284 275 271 267 256 249
208 220 213 201 211 211 203 186 145 159 168 181 198 207 217 226 233 235 240 243 238 236 241 248 250 254 262 260 251 239 222 233 248 252 251 261 281 280 274 271 274 271 266
215 223 228 218 204 193 179 147 145 175 181 197 210 219 220 229 237 242 245 245 242 248 246 246 248 252 268 267 251 233 227 250 265 265 262 263 271 276 270 260 270 280 281
206 216 211 146 176 211 168 158 176 193 225 230 227 222 216 222 236 244 248 249 242 249 250 255 254 251 263 267 258 234 234 261 277 278 272 267 266 268 255 243 253 265 272
235 188 149 180 215 210 178 187 205 224 232 233 231 231 223 222 229 241 258 249 238 245 255 261 267 261 257 261 249 223 226 242 260 270 274 271 272 266 257 244 246 251 254
282 165 142 222 274 199 179 199 236 246 217 203 221 233 232 234 238 237 267 258 233 237 251 264 279 281 274 261 254 233 237 242 247 262 271 272 267 260 257 252 257 256 248
221 231 155 122 331 206 184 212 248 229 205 205 232 236 241 242 228 221 236 254 251 245 250 249 262 279 284 269 255 246 246 249 249 261 266 270 265 258 255 257 259 251 239
170 134 104 74 317 323 277 241 256 223 194 222 246 250 241 251 264 251 238 236 244 250 253 255 260 270 279 279 279 273 264 255 254 264 276 275 268 260 264 272 267 251 238
168 134 140 186 286 306 310 299 254 197 213 241 256 258 245 229 241 264 257 247 248 243 240 246 244 244 258 261 259 261 267 262 258 256 282 318 317 301 299 286 276 261 247
126 103 114 114 345 336 335 322 295 216 206 235 255 257 256 253 245 257 298 307 272 268 250 239 238 246 245 258 263 265 268 265 244 216 245 260 262 264 271 277 273 260 256
Height
1513 1515 1517 1520 1522 1524 1526 1528 1529 1530 1532 1533 1534 1535 1536 1537 1537 1537 1538 1538 1538 1538 1537 1537 1536 1536 1535 1534 1533 1533 1533 1533 1534 1534 1535 1535 1536 1536 1536 1537 1537 1537 1538
1511 1513 1516 1518 1520 1522 1524 1526 1528 1530 1531 1532 1533 1535 1536 1536 1537 1537 1537 1537 1537 1537 1537 1536 1536 1535 1534 1533 1532 1532 1531 1532 1533 1533 1533 1534 1535 1534 1535 1535 1535 1535 1535
1508 1510 1513 1515 1517 1520 1522 1524 1527 1528 1530 1532 1533 1534 1535 1535 1536 1536 1536 1536 1537 1536 1536 1535 1535 1534 1533 1532 1531 1531 1530 1530 1532 1532 1533 1533 1533 1533 1533 1533 1533 1533 1533
1505 1507 1510 1512 1514 1517 1521 1523 1525 1527 1529 1530 1532 1532 1533 1534 1534 1535 1535 1535 1535 1535 1535 1534 1534 1533 1532 1531 1531 1531 1530 1530 1530 1531 1532 1532 1532 1532 1531 1531 1531 1531 1531
1502 1504 1506 1509 1512 1515 1518 1521 1523 1525 1527 1529 1530 1531 1532 1533 1533 1534 1534 1534 1534 1534 1533 1533 1532 1532 1531 1531 1530 1530 1530 1529 1529 1529 1530 1530 1530 1530 1530 1528 1529 1529 1528
1500 1502 1505 1508 1510 1513 1516 1518 1521 1523 1525 1526 1528 1529 1530 1531 1531 1532 1532 1532 1532 1532 1532 1531 1531 1530 1530 1529 1529 1528 1528 1528 1528 1528 1528 1528 1528 1528 1528 1527 1526 1525 1525
1497 1499 1502 1504 1507 1510 1512 1515 1517 1520 1522 1524 1525 1527 1528 1529 1529 1530 1530 1530 1530 1530 1530 1530 1529 1529 1528 1528 1527 1527 1526 1526 1526 1526 1525 1525 1525 1525 1525 1525 1524 1523 1522
1494 1496 1499 1501 1504 1506 1509 1512 1514 1517 1519 1521 1523 1524 1526 1527 1527 1528 1528 1528 1528 1528 1528 1527 1527 1527 1526 1526 1525 1525 1524 1523 1523 1523 1523 1523 1522 1523 1522 1522 1521 1520 1519
1492 1494 1497 1499 1502 1504 1507 1509 1512 1514 1516 1518 1520 1522 1523 1524 1525 1525 1526 1526 1526 1526 1525 1525 1525 1524 1524 1523 1523 1522 1522 1521 1520 1520 1520 1520 1519 1519 1519 1519 1519 1519 1517
1490 1493 1495 1497 1499 1502 1505 1507 1510 1512 1514 1516 1518 1519 1520 1521 1522 1523 1523 1523 1523 1523 1523 1523 1522 1522 1521 1520 1520 1519 1519 1518 1518 1517 1517 1516 1516 1516 1515 1515 1515 1515 1515
1489 1491 1494 1496 1498 1501 1503 1505 1507 1510 1511 1513 1515 1516 1517 1518 1519 1520 1520 1521 1521 1520 1520 1520 1519 1519 1518 1518 1517 1516 1516 1515 1515 1514 1513 1513 1513 1512 1512 1512 1512 1511 1511
1489 1491 1493 1495 1498 1500 1501 1503 1504 1507 1509 1510 1512 1514 1514 1515 1515 1516 1517 1518 1518 1518 1518 1517 1517 1516 1515 1515 1514 1513 1513 1512 1511 1511 1511 1510 1510 1509 1509 1508 1508 1508 1508
1489 1491 1493 1494 1496 1498 1500 1501 1503 1504 1506 1507 1508 1510 1511 1513 1513 1513 1514 1515 1515 1515 1515 1514 1514 1513 1513 1512 1511 1510 1510 1509 1509 1508 1507 1507 1506 1506 1505 1505 1505 1505 1505
1489 1490 1492 1494 1496 1497 1499 1500 1501 1502 1503 1504 1505 1507 1508 1509 1510 1511 1511 1512 1512 1512 1511 1511 1511 1510 1510 1509 1508 1508 1507 1507 1506 1505 1504 1504 1503 1503 1502 1502 1502 1502 1501
1489 1490 1491 1492 1494 1496 1496 1498 1499 1500 1501 1502 1502 1504 1505 1506 1507 1508 1508 1509 1509 1508 1508 1508 1507 1507 1507 1506 1505 1505 1504 1503 1503 1502 1501 1501 1500 1500 1499 1499 1498 1498 1497
1489 1489 1490 1490 1492 1493 1495 1496 1496 1497 1499 1499 1500 1502 1503 1504 1504 1505 1505 1505 1505 1505 1505 1504 1504 1503 1503 1503 1502 1502 1501 1500 1499 1499 1498 1497 1497 1496 1496 1495 1495 1494 1494
1488 1488 1488 1488 1490 1492 1494 1493 1495 1495 1496 1497 1498 1499 1499 1500 1501 1502 1502 1502 1502 1502 1501 1501 1501 1500 1500 1500 1499 1498 1498 1497 1496 1495 1494 1494 1493 1492 1492 1491 1491 1490 1490
1486 1487 1488 1488 1489 1490 1490 1491 1492 1493 1494 1495 1496 1496 1497 1497 1498 1498 1498 1498 1498 1498 1498 1498 1497 1496 1496 1495 1495 1495 1494 1493 1492 1491 1491 1490 1489 1488 1488 1487 1487 1486 1486
1486 1487 1487 1487 1487 1488 1489 1489 1490 1491 1491 1492 1492 1493 1494 1494 1495 1495 1495 1495 1495 1495 1494 1494 1493 1492 1492 1491 1491 1490 1490 1489 1488 1488 1487 1486 1485 1485 1484 1483 1482 1482 1482
1484 1485 1486 1485 1486 1486 1487 1487 1487 1489 1489 1489 1490 1491 1491 1491 1492 1492 1492 1491 1491 1491 1491 1490 1489 1488 1488 1487 1487 1487 1486 1485 1484 1483 1483 1482 1481 1481 1480 1479 1478 1478 1477
1482 1483 1483 1483 1484 1484 1485 1484 1485 1485 1486 1487 1488 1488 1488 1488 1488 1488 1488 1488 1487 1487 1487 1486 1485 1484 1484 1483 1483 1483 1482 1481 1480 1479 1478 1478 1477 1476 1476 1475 1475 1474 1474
1480 1481 1481 1481 1482 1483 1482 1482 1482 1483 1483 1484 1484 1485 1484 1485 1485 1485 1485 1484 1483 1483 1482 1482 1481 1480 1480 1479 1479 1479 1478 1478 1477 1475 1474 1473 1473 1472 1471 1471 1471 1470 1470
1478 1479 1479 1479 1480 1480 1480 1479 1479 1480 1480 1480 1480 1481 1481 1481 1481 1481 1480 1480 1480 1479 1478 1477 1477 1476 1476 1476 1475 1475 1474 1473 1472 1471 1470 1469 1468 1468 1467 1467 1466 1466 1465
1476 1477 1478 1477 1477 1478 1478 1477 1477 1477 1477 1476 1476 1476 1476 1476 1477 1477 1477 1476 1476 1475 1474 1473 1473 1472 1472 1471 1471 1470 1469 1468 1467 1467 1466 1465 1464 1464 1463 1462 1462 1461 1461
1475 1475 1475 1476 1476 1476 1475 1475 1474 1474 1474 1473 1473 1473 1473 1472 1472 1473 1473 1472 1472 1472 1471 1470 1469 1468 1467 1467 1467 1466 1465 1464 1463 1462 1461 1460 1460 1459 1458 1457 1457 1457 1456
1474 1474 1474 1474 1474 1473 1473 1472 1472 1471 1471 1470 1469 1469 1469 1469 1469 1469 1469 1468 1468 1468 1467 1467 1466 1465 1465 1464 1463 1462 1461 1460 1459 1458 1456 1456 1455 1454 1454 1453 1452 1452 1452